Clines Corner, NM

3:53 PM MST on February 23, 2018 (GMT -0700)
Clines Corner

Weather History for KCQC - October, 2012

Change the Weather History Date:

Wednesday, October 31, 2012

  Actual Average (KSAF) Record (KSAF)
Temperature  
Mean Temperature 52 °F -  
Max Temperature 68 °F 65 °F 104 °F (1996)
Min Temperature 37 °F 32 °F 26 °F (1980)
Degree Days  
Heating Degree Days 14    
Growing Degree Days 2 (Base 50)    
Moisture  
Dew Point 11 °F    
Average Humidity 21    
Maximum Humidity 36    
Minimum Humidity 11    
Precipitation  
Precipitation 0.00 in - - ()
Sea Level Pressure  
Sea Level Pressure 30.06 in    
Wind  
Wind Speed 10 mph (WNW)    
Max Wind Speed 15 mph    
Max Gust Speed -    
Visibility 10 miles    
Events      
Averages and records for this station are not official NWS values.
T = Trace of Precipitation, MM = Missing Value Source: NWS Daily Summary

Daily Weather History Graph

Daily Weather History Graph

Search for Another Location

Airport or City:

Trip Planner

Search our weather history database for the weather conditions in past years. The results will help you decide how hot, cold, wet, or windy it might be!

Date:

Astronomy

Oct. 31, 2012 Rise Set
Actual Time 7:23 AM MDT 6:08 PM MDT
Civil Twilight 6:57 AM MDT 6:34 PM MDT
Nautical Twilight 6:27 AM MDT 7:04 PM MDT
Astronomical Twilight 5:57 AM MDT 7:34 PM MDT
Moon 7:26 PM MDT (10/31) 9:02 AM MDT (10/31)
Length of Visible Light 11h 37m
Length of Day
10h 45m
Full, 97% of the Moon is Illuminated
Oct 31
Full
Nov 6
Last Quarter
Nov 13
New
Nov 20
First Quarter
Nov 28
Full

Hourly Weather History & Observations

Time (MDT) Temp. Windchill Dew Point Humidity Pressure Visibility Wind Dir Wind Speed Gust Speed Precip Events Conditions
12:53 AM 45.0 °F 39.7 °F 10.9 °F 25% 30.01 in 10.0 mi West 10.4 mph - N/A   Clear
1:53 AM 43.0 °F - 12.0 °F 28% 30.01 in 10.0 mi North - - N/A   Clear
2:53 AM 41.0 °F 34.3 °F 12.0 °F 31% 30.01 in 10.0 mi WNW 11.5 mph - N/A   Clear
3:53 AM 37.9 °F 30.0 °F 12.0 °F 35% 30.02 in 10.0 mi WNW 12.7 mph - N/A   Clear
4:53 AM 37.0 °F - 10.9 °F 34% 30.03 in 10.0 mi North - - N/A   Clear
5:53 AM 41.0 °F 34.3 °F 12.0 °F 31% 30.05 in 10.0 mi NW 11.5 mph - N/A   Clear
6:53 AM 37.9 °F 30.0 °F 12.9 °F 36% 30.12 in 10.0 mi WNW 12.7 mph - N/A   Clear
7:53 AM 37.9 °F 30.9 °F 12.9 °F 36% 30.15 in 10.0 mi WNW 10.4 mph - N/A   Clear
9:53 AM 55.0 °F - 15.1 °F 21% 30.10 in 10.0 mi NW 11.5 mph - N/A   Unknown
10:53 AM 59.0 °F - 15.1 °F 18% 30.09 in 10.0 mi NW 12.7 mph - N/A   Clear
11:53 AM 62.1 °F - 14.0 °F 15% 30.08 in 10.0 mi WNW 15.0 mph - N/A   Clear
12:53 PM 64.0 °F - 12.9 °F 14% 30.05 in 10.0 mi NW 10.4 mph - N/A   Clear
1:53 PM 66.9 °F - 10.9 °F 11% 30.02 in 10.0 mi NW 8.1 mph - N/A   Clear
2:53 PM 66.9 °F - 10.0 °F 11% 30.01 in 10.0 mi Variable 6.9 mph - N/A   Clear
3:53 PM 66.9 °F - 10.0 °F 11% 30.01 in 10.0 mi SW 5.8 mph - N/A   Clear
4:53 PM 66.9 °F - 10.0 °F 11% 30.02 in 10.0 mi West 5.8 mph - N/A   Clear
5:53 PM 60.1 °F - 12.0 °F 15% 30.06 in 10.0 mi SW 9.2 mph - N/A   Clear
6:53 PM 50.0 °F - 12.0 °F 22% 30.11 in 10.0 mi WSW 9.2 mph - N/A   Clear
7:53 PM 51.1 °F - 10.0 °F 19% 30.13 in 10.0 mi WNW 5.8 mph - N/A   Clear
8:53 PM 53.1 °F - 10.0 °F 18% 30.12 in 10.0 mi NNW 4.6 mph - N/A   Clear
9:53 PM 52.0 °F - 6.1 °F 16% 30.06 in 10.0 mi North 6.9 mph - N/A   Clear
10:53 PM 48.9 °F - 6.1 °F 18% 30.06 in 10.0 mi Calm Calm - N/A   Clear
11:53 PM 48.9 °F - 7.0 °F 18% 30.04 in 10.0 mi Calm Calm - N/A   Clear